Time,TemperatureF,DewpointF,PressureIn,WindDirection,WindDirectionDegrees,WindSpeedMPH,WindSpeedGustMPH,Humidity,HourlyPrecipIn,Conditions,Clouds,dailyrainin,SoftwareType,DateUTC
2013-12-20 00:10:00,36.2,32.0,30.16,WNW,300,1.0,-999.0,86,-99.99,,,0.00,weatherlink.com 1.10,2013-12-20 06:10:00,
2013-12-20 00:25:00,36.4,33.0,30.17,WNW,300,0.0,-999.0,86,-99.99,,,0.00,weatherlink.com 1.10,2013-12-20 06:25:00,
2013-12-20 00:40:00,36.4,33.0,30.16,WNW,300,0.0,-999.0,86,-99.99,,,0.00,weatherlink.com 1.10,2013-12-20 06:40:00,
2013-12-20 00:55:00,37.0,33.0,30.17,WNW,300,0.0,-999.0,85,-99.99,,,0.00,weatherlink.com 1.10,2013-12-20 06:55:00,
2013-12-20 01:10:00,37.2,33.0,30.17,NW,317,0.0,-999.0,84,-99.99,,,0.00,weatherlink.com 1.10,2013-12-20 07:10:00,
2013-12-20 01:25:00,37.1,33.0,30.17,NW,317,0.0,-999.0,85,-99.99,,,0.00,weatherlink.com 1.10,2013-12-20 07:25:00,
2013-12-20 01:40:00,36.6,33.0,30.17,NW,317,0.0,-999.0,86,-99.99,,,0.00,weatherlink.com 1.10,2013-12-20 07:40:00,
2013-12-20 01:55:00,36.8,33.0,30.18,NW,317,2.0,-999.0,86,-99.99,,,0.00,weatherlink.com 1.10,2013-12-20 07:55:00,
2013-12-20 02:10:00,37.4,33.0,30.17,NW,317,0.0,-999.0,84,-99.99,,,0.00,weatherlink.com 1.10,2013-12-20 08:10:00,
2013-12-20 02:25:00,38.0,34.0,30.16,NW,317,0.0,-999.0,84,-99.99,,,0.00,weatherlink.com 1.10,2013-12-20 08:25:00,
2013-12-20 02:40:00,37.6,34.0,30.16,NW,317,0.0,-999.0,85,-99.99,,,0.00,weatherlink.com 1.10,2013-12-20 08:40:00,
2013-12-20 02:55:00,37.5,34.0,30.16,NW,318,0.0,-999.0,86,-99.99,,,0.00,weatherlink.com 1.10,2013-12-20 08:55:00,
2013-12-20 03:10:00,37.6,34.0,30.16,NW,318,0.0,-999.0,86,-99.99,,,0.00,weatherlink.com 1.10,2013-12-20 09:10:00,
2013-12-20 03:25:00,38.1,35.0,30.16,NW,318,1.0,-999.0,87,-99.99,,,0.00,weatherlink.com 1.10,2013-12-20 09:25:00,
2013-12-20 03:40:00,38.2,34.0,30.16,NW,318,0.0,-999.0,86,-99.99,,,0.00,weatherlink.com 1.10,2013-12-20 09:40:00,
2013-12-20 03:55:00,38.9,35.0,30.15,NW,318,0.0,-999.0,86,-99.99,,,0.00,weatherlink.com 1.10,2013-12-20 09:55:00,
2013-12-20 04:10:00,39.7,35.0,30.15,NNW,347,0.0,-999.0,84,-99.99,,,0.00,weatherlink.com 1.10,2013-12-20 10:10:00,
2013-12-20 04:25:00,40.1,36.0,30.16,NNW,347,0.0,-999.0,85,-99.99,,,0.00,weatherlink.com 1.10,2013-12-20 10:25:00,
2013-12-20 04:40:00,39.9,36.0,30.16,NNW,347,0.0,-999.0,86,-99.99,,,0.00,weatherlink.com 1.10,2013-12-20 10:40:00,
2013-12-20 04:55:00,40.1,36.0,30.16,NNW,347,0.0,-999.0,86,-99.99,,,0.00,weatherlink.com 1.10,2013-12-20 10:55:00,
2013-12-20 05:10:00,40.3,37.0,30.16,NNW,347,0.0,-999.0,86,-99.99,,,0.00,weatherlink.com 1.10,2013-12-20 11:10:00,
2013-12-20 05:25:00,40.4,37.0,30.16,NNW,347,0.0,-999.0,86,-99.99,,,0.00,weatherlink.com 1.10,2013-12-20 11:25:00,
2013-12-20 05:40:00,40.7,37.0,30.16,NNW,347,0.0,-999.0,85,-99.99,,,0.00,weatherlink.com 1.10,2013-12-20 11:40:00,
2013-12-20 05:55:00,41.0,37.0,30.16,NNW,347,0.0,-999.0,86,-99.99,,,0.00,weatherlink.com 1.10,2013-12-20 11:55:00,
2013-12-20 06:10:00,41.2,37.0,30.16,NNW,347,0.0,-999.0,85,-99.99,,,0.00,weatherlink.com 1.10,2013-12-20 12:10:00,
2013-12-20 06:25:00,41.2,38.0,30.16,NNW,347,0.0,-999.0,87,-99.99,,,0.00,weatherlink.com 1.10,2013-12-20 12:25:00,
2013-12-20 06:40:00,41.4,38.0,30.16,NNW,347,0.0,-999.0,86,-99.99,,,0.00,weatherlink.com 1.10,2013-12-20 12:40:00,
2013-12-20 06:55:00,41.4,37.0,30.16,NNW,347,0.0,-999.0,85,-99.99,,,0.00,weatherlink.com 1.10,2013-12-20 12:55:00,
2013-12-20 07:10:00,41.3,37.0,30.16,NNW,347,0.0,-999.0,85,-99.99,,,0.00,weatherlink.com 1.10,2013-12-20 13:10:00,
2013-12-20 07:25:00,41.4,38.0,30.17,NNW,347,0.0,-999.0,86,-99.99,,,0.00,weatherlink.com 1.10,2013-12-20 13:25:00,
2013-12-20 07:40:00,41.7,38.0,30.17,NNW,347,0.0,-999.0,87,-99.99,,,0.00,weatherlink.com 1.10,2013-12-20 13:40:00,
2013-12-20 07:55:00,42.2,39.0,30.18,NNW,347,0.0,-999.0,87,-99.99,,,0.00,weatherlink.com 1.10,2013-12-20 13:55:00,
2013-12-20 08:10:00,42.9,39.0,30.18,NNW,347,0.0,-999.0,86,-99.99,,,0.00,weatherlink.com 1.10,2013-12-20 14:10:00,
2013-12-20 08:25:00,43.8,40.0,30.17,NNW,347,0.0,-999.0,86,-99.99,,,0.00,weatherlink.com 1.10,2013-12-20 14:25:00,
2013-12-20 08:40:00,44.6,40.0,30.17,NNW,347,0.0,-999.0,84,-99.99,,,0.00,weatherlink.com 1.10,2013-12-20 14:40:00,
2013-12-20 08:55:00,45.6,40.0,30.17,NNW,347,0.0,-999.0,80,-99.99,,,0.00,weatherlink.com 1.10,2013-12-20 14:55:00,
2013-12-20 09:10:00,47.0,41.0,30.18,NNW,347,0.0,-999.0,79,-99.99,,,0.00,weatherlink.com 1.10,2013-12-20 15:10:00,
2013-12-20 09:26:00,48.0,41.0,30.17,NNW,347,0.0,-999.0,78,-99.99,,,0.00,weatherlink.com 1.10,2013-12-20 15:26:00,
2013-12-20 09:41:00,48.8,42.0,30.18,NNW,347,0.0,-999.0,78,-99.99,,,0.00,weatherlink.com 1.10,2013-12-20 15:41:00,
2013-12-20 09:56:00,49.6,42.0,30.18,NNW,347,0.0,-999.0,75,-99.99,,,0.00,weatherlink.com 1.10,2013-12-20 15:56:00,
2013-12-20 10:11:00,50.3,43.0,30.18,NNW,347,0.0,-999.0,75,-99.99,,,0.00,weatherlink.com 1.10,2013-12-20 16:11:00,
2013-12-20 10:26:00,51.1,43.0,30.16,NNW,348,0.0,-999.0,74,-99.99,,,0.00,weatherlink.com 1.10,2013-12-20 16:26:00,
2013-12-20 10:56:00,53.4,44.0,30.14,NNW,348,0.0,-999.0,70,-99.99,,,0.00,weatherlink.com 1.10,2013-12-20 16:56:00,
2013-12-20 11:11:00,56.3,45.0,30.14,West,269,1.0,-999.0,67,-99.99,,,0.00,weatherlink.com 1.10,2013-12-20 17:11:00,
2013-12-20 11:26:00,58.7,46.0,30.12,WNW,291,1.0,-999.0,63,-99.99,,,0.00,weatherlink.com 1.10,2013-12-20 17:26:00,
2013-12-20 11:41:00,59.7,47.0,30.12,West,261,1.0,-999.0,63,-99.99,,,0.00,weatherlink.com 1.10,2013-12-20 17:41:00,
2013-12-20 11:56:00,60.6,48.0,30.11,SW,235,0.0,-999.0,64,-99.99,,,0.00,weatherlink.com 1.10,2013-12-20 17:56:00,
2013-12-20 12:11:00,61.7,51.0,30.10,WNW,289,0.0,-999.0,67,-99.99,,,0.00,weatherlink.com 1.10,2013-12-20 18:11:00,
2013-12-20 12:26:00,63.5,54.0,30.09,SW,219,1.0,-999.0,70,-99.99,,,0.00,weatherlink.com 1.10,2013-12-20 18:26:00,
2013-12-20 12:41:00,64.5,55.0,30.09,SW,235,2.0,-999.0,71,-99.99,,,0.00,weatherlink.com 1.10,2013-12-20 18:41:00,
2013-12-20 12:56:00,65.3,55.0,30.08,SSW,202,4.0,-999.0,70,-99.99,,,0.00,weatherlink.com 1.10,2013-12-20 18:56:00,
2013-12-20 13:11:00,65.8,56.0,30.07,South,180,3.0,-999.0,71,-99.99,,,0.00,weatherlink.com 1.10,2013-12-20 19:11:00,
2013-12-20 13:26:00,66.3,57.0,30.06,South,186,3.0,-999.0,71,-99.99,,,0.00,weatherlink.com 1.10,2013-12-20 19:26:00,
2013-12-20 13:41:00,66.4,57.0,30.06,SSW,192,2.0,-999.0,72,-99.99,,,0.00,weatherlink.com 1.10,2013-12-20 19:41:00,
2013-12-20 13:56:00,66.1,57.0,30.06,SSE,165,4.0,-999.0,72,-99.99,,,0.00,weatherlink.com 1.10,2013-12-20 19:56:00,
2013-12-20 14:27:00,65.7,57.0,30.05,WNW,294,1.0,-999.0,73,-99.99,,,0.00,weatherlink.com 1.10,2013-12-20 20:27:00,
2013-12-20 14:42:00,65.6,56.0,30.06,South,173,0.0,-999.0,72,-99.99,,,0.00,weatherlink.com 1.10,2013-12-20 20:42:00,
2013-12-20 14:57:00,65.4,56.0,30.06,South,190,0.0,-999.0,72,-99.99,,,0.00,weatherlink.com 1.10,2013-12-20 20:57:00,
2013-12-20 15:12:00,65.0,56.0,30.06,SSE,164,5.0,-999.0,73,-99.99,,,0.00,weatherlink.com 1.10,2013-12-20 21:12:00,
2013-12-20 15:27:00,64.8,56.0,30.06,SSW,199,1.0,-999.0,73,-99.99,,,0.00,weatherlink.com 1.10,2013-12-20 21:27:00,
2013-12-20 15:42:00,64.7,56.0,30.05,South,178,1.0,-999.0,73,-99.99,,,0.00,weatherlink.com 1.10,2013-12-20 21:42:00,
2013-12-20 15:57:00,64.8,56.0,30.06,SSW,194,3.0,-999.0,73,-99.99,,,0.00,weatherlink.com 1.10,2013-12-20 21:57:00,
2013-12-20 16:12:00,64.5,56.0,30.05,SSW,205,1.0,-999.0,73,-99.99,,,0.00,weatherlink.com 1.10,2013-12-20 22:12:00,
2013-12-20 16:27:00,64.4,56.0,30.06,SE,141,0.0,-999.0,74,-99.99,,,0.00,weatherlink.com 1.10,2013-12-20 22:27:00,
2013-12-20 16:42:00,64.2,56.0,30.06,SW,221,3.0,-999.0,74,-99.99,,,0.00,weatherlink.com 1.10,2013-12-20 22:42:00,
2013-12-20 16:57:00,64.4,56.0,30.07,SE,144,6.0,-999.0,74,-99.99,,,0.00,weatherlink.com 1.10,2013-12-20 22:57:00,
2013-12-20 17:12:00,64.4,56.0,30.07,SW,214,1.0,-999.0,74,-99.99,,,0.00,weatherlink.com 1.10,2013-12-20 23:12:00,
2013-12-20 17:27:00,64.3,56.0,30.07,SW,223,2.0,-999.0,74,-99.99,,,0.00,weatherlink.com 1.10,2013-12-20 23:27:00,
2013-12-20 17:42:00,64.3,56.0,30.07,SSE,165,0.0,-999.0,74,-99.99,,,0.00,weatherlink.com 1.10,2013-12-20 23:42:00,
2013-12-20 17:57:00,64.0,56.0,30.07,SW,215,2.0,-999.0,74,-99.99,,,0.00,weatherlink.com 1.10,2013-12-20 23:57:00,
2013-12-20 18:12:00,63.9,56.0,30.07,SSW,197,5.0,-999.0,75,-99.99,,,0.00,weatherlink.com 1.10,2013-12-21 00:12:00,
2013-12-20 18:27:00,63.8,56.0,30.07,SW,217,6.0,-999.0,76,-99.99,,,0.00,weatherlink.com 1.10,2013-12-21 00:27:00,
2013-12-20 18:42:00,63.6,56.0,30.07,SW,217,1.0,-999.0,77,-99.99,,,0.00,weatherlink.com 1.10,2013-12-21 00:42:00,
2013-12-20 18:57:00,63.6,57.0,30.07,South,178,4.0,-999.0,78,-99.99,,,0.00,weatherlink.com 1.10,2013-12-21 00:57:00,
2013-12-20 19:12:00,63.4,57.0,30.07,SSE,153,0.0,-999.0,79,-99.99,,,0.00,weatherlink.com 1.10,2013-12-21 01:12:00,
2013-12-20 19:27:00,63.2,57.0,30.07,SSW,205,1.0,-999.0,79,-99.99,,,0.00,weatherlink.com 1.10,2013-12-21 01:27:00,
2013-12-20 19:42:00,63.2,57.0,30.07,SW,227,0.0,-999.0,80,-99.99,,,0.00,weatherlink.com 1.10,2013-12-21 01:42:00,
2013-12-20 19:57:00,63.3,57.0,30.07,SSW,199,2.0,-999.0,80,-99.99,,,0.00,weatherlink.com 1.10,2013-12-21 01:57:00,
2013-12-20 20:12:00,63.2,57.0,30.07,SW,215,2.0,-999.0,81,-99.99,,,0.00,weatherlink.com 1.10,2013-12-21 02:12:00,
2013-12-20 20:27:00,63.1,57.0,30.07,South,177,0.0,-999.0,81,-99.99,,,0.00,weatherlink.com 1.10,2013-12-21 02:27:00,
2013-12-20 20:42:00,62.9,57.0,30.07,SSE,162,2.0,-999.0,81,-99.99,,,0.00,weatherlink.com 1.10,2013-12-21 02:42:00,
2013-12-20 20:57:00,62.9,57.0,30.07,SW,235,1.0,-999.0,82,-99.99,,,0.00,weatherlink.com 1.10,2013-12-21 02:57:00,
2013-12-20 21:12:00,62.7,57.0,30.07,South,182,2.0,-999.0,82,-99.99,,,0.00,weatherlink.com 1.10,2013-12-21 03:12:00,
2013-12-20 21:27:00,62.5,57.0,30.06,South,177,0.0,-999.0,82,-99.99,,,0.00,weatherlink.com 1.10,2013-12-21 03:27:00,
2013-12-20 21:42:00,62.4,57.0,30.06,South,190,1.0,-999.0,83,-99.99,,,0.00,weatherlink.com 1.10,2013-12-21 03:42:00,
2013-12-20 21:57:00,62.6,57.0,30.06,West,272,1.0,-999.0,83,-99.99,,,0.00,weatherlink.com 1.10,2013-12-21 03:57:00,
2013-12-20 22:12:00,62.5,57.0,30.05,WSW,242,0.0,-999.0,83,-99.99,,,0.00,weatherlink.com 1.10,2013-12-21 04:12:00,
2013-12-20 22:27:00,62.5,57.0,30.05,South,184,0.0,-999.0,83,-99.99,,,0.00,weatherlink.com 1.10,2013-12-21 04:27:00,
2013-12-20 22:42:00,62.6,57.0,30.04,SW,229,2.0,-999.0,83,-99.99,,,0.00,weatherlink.com 1.10,2013-12-21 04:42:00,
2013-12-20 22:57:00,62.7,58.0,30.03,South,190,2.0,-999.0,84,-99.99,,,0.00,weatherlink.com 1.10,2013-12-21 04:57:00,
2013-12-20 23:12:00,62.5,58.0,30.03,SSW,194,1.0,-999.0,84,-99.99,,,0.00,weatherlink.com 1.10,2013-12-21 05:12:00,
2013-12-20 23:27:00,62.3,58.0,30.03,South,173,4.0,-999.0,85,-99.99,,,0.00,weatherlink.com 1.10,2013-12-21 05:27:00,
2013-12-20 23:42:00,62.4,58.0,30.02,South,184,1.0,-999.0,85,-99.99,,,0.00,weatherlink.com 1.10,2013-12-21 05:42:00,
2013-12-20 23:57:00,62.3,58.0,30.02,SSW,202,2.0,-999.0,85,-99.99,,,0.00,weatherlink.com 1.10,2013-12-21 05:57:00,